OCN41K ENBO-EDDM

Flight info

Callsign OCN41K
Flight time 3h 1m
Altitude 33000
Route DISMU DCT SALLO DCT MAREM DCT VESUB T106 TUSTO T108 LANDU LANDU2B
Aircraft A320/M-SDE3FGHIRWY/LB1

Departure

Time 2026-05-04 07:57
Airport Bodø Airport (ENBO)

Arrival

Time 2026-05-04 10:58
Airport Munich Airport (EDDM)
Time Latitude Longitude Altitude Speed Heading
2026-05-04 07:39 67.27192 14.36924 52 ft 0 kts 291°
2026-05-04 07:47 67.27191 14.36930 52 ft 2 kts 291°
2026-05-04 07:47 67.27186 14.36966 52 ft 2 kts 291°
2026-05-04 07:49 67.27177 14.37176 53 ft 1 kts 186°
2026-05-04 07:49 67.27186 14.37175 53 ft 2 kts 161°
2026-05-04 07:49 67.27193 14.37168 52 ft 0 kts 166°
2026-05-04 07:51 67.27190 14.37170 53 ft 1 kts 167°
2026-05-04 07:51 67.27159 14.37186 54 ft 5 kts 168°
2026-05-04 07:51 67.27118 14.37182 55 ft 6 kts 211°
2026-05-04 07:52 67.27093 14.37052 56 ft 10 kts 258°
2026-05-04 07:52 67.27073 14.36801 54 ft 18 kts 258°
2026-05-04 07:52 67.27045 14.36412 51 ft 25 kts 259°
2026-05-04 07:52 67.27011 14.35929 48 ft 28 kts 258°
2026-05-04 07:53 67.26971 14.35439 48 ft 27 kts 257°
2026-05-04 07:54 67.26653 14.33301 12 ft 13 kts 256°
2026-05-04 07:55 67.26627 14.32994 8 ft 23 kts 258°
2026-05-04 07:55 67.26587 14.32529 8 ft 28 kts 257°
2026-05-04 07:55 67.26544 14.32162 8 ft 14 kts 239°
2026-05-04 07:55 67.26554 14.32145 8 ft 6 kts 79°
2026-05-04 07:56 67.26555 14.32152 8 ft 0 kts 79°
2026-05-04 07:56 67.26559 14.32204 8 ft 21 kts 78°
2026-05-04 07:56 67.26646 14.33263 12 ft 96 kts 78°
2026-05-04 07:56 67.26833 14.35468 57 ft 154 kts 78°
2026-05-04 07:57 67.27079 14.38377 496 ft 171 kts 79°
2026-05-04 07:57 67.27297 14.41361 1236 ft 173 kts 86°
2026-05-04 07:57 67.27290 14.44437 1955 ft 177 kts 93°
2026-05-04 07:57 67.27076 14.47649 2454 ft 192 kts 117°
2026-05-04 07:58 67.26067 14.49918 2912 ft 205 kts 160°
2026-05-04 07:58 67.24640 14.50823 3405 ft 222 kts 169°
2026-05-04 07:58 67.23068 14.51615 3925 ft 238 kts 169°
2026-05-04 07:58 67.21459 14.52543 4769 ft 242 kts 167°
2026-05-04 07:59 67.19836 14.53600 5617 ft 246 kts 166°
2026-05-04 07:59 67.18189 14.54744 6453 ft 250 kts 165°
2026-05-04 07:59 67.16517 14.55941 7275 ft 254 kts 165°
2026-05-04 07:59 67.14821 14.57169 8112 ft 257 kts 165°
2026-05-04 08:00 67.13095 14.58234 8938 ft 259 kts 175°
2026-05-04 08:00 67.11313 14.58052 9684 ft 262 kts 192°
2026-05-04 08:00 67.09496 14.56942 10159 ft 278 kts 195°
2026-05-04 08:02 66.95000 14.47303 14882 ft 318 kts 195°
2026-05-04 08:02 66.92867 14.45920 15604 ft 320 kts 195°
2026-05-04 08:02 66.90720 14.44533 16297 ft 322 kts 195°
2026-05-04 08:03 66.88555 14.43137 16950 ft 325 kts 195°
2026-05-04 08:03 66.86372 14.41730 17599 ft 327 kts 195°
2026-05-04 08:03 66.84171 14.40306 18218 ft 330 kts 195°
2026-05-04 08:03 66.81954 14.38872 18838 ft 332 kts 195°
2026-05-04 08:04 66.79722 14.37430 19440 ft 335 kts 195°
2026-05-04 08:04 66.77472 14.35981 20012 ft 337 kts 196°
2026-05-04 08:04 66.75204 14.34527 20570 ft 340 kts 196°
2026-05-04 08:04 66.72922 14.33064 21134 ft 342 kts 196°
2026-05-04 08:05 66.70626 14.31593 21689 ft 344 kts 196°
2026-05-04 08:05 66.68316 14.30117 22212 ft 346 kts 196°
2026-05-04 08:05 66.65991 14.28636 22714 ft 348 kts 196°
2026-05-04 08:05 66.63702 14.26788 23201 ft 348 kts 207°
2026-05-04 08:06 66.61718 14.23409 23683 ft 348 kts 223°
2026-05-04 08:06 66.60178 14.18738 24119 ft 352 kts 236°
2026-05-04 08:06 66.58877 14.13555 24597 ft 354 kts 236°
2026-05-04 08:06 66.57568 14.08332 25013 ft 356 kts 236°
2026-05-04 08:08 66.42828 13.90550 27255 ft 380 kts 186°
2026-05-04 08:08 66.40196 13.90368 27553 ft 382 kts 186°
2026-05-04 08:10 66.18716 13.88949 29640 ft 395 kts 186°
2026-05-04 08:11 66.15977 13.88773 29872 ft 397 kts 187°
2026-05-04 08:11 66.10468 13.88421 30315 ft 400 kts 186°
2026-05-04 08:11 66.07696 13.88242 30490 ft 402 kts 186°
2026-05-04 08:12 66.04908 13.88064 30653 ft 404 kts 186°
2026-05-04 08:12 66.02103 13.87886 30823 ft 407 kts 186°
2026-05-04 08:12 65.99276 13.87707 31004 ft 409 kts 186°
2026-05-04 08:12 65.96439 13.87528 31166 ft 412 kts 186°
2026-05-04 08:13 65.93587 13.87347 31340 ft 414 kts 186°
2026-05-04 08:13 65.90720 13.87167 31499 ft 416 kts 186°
2026-05-04 08:13 65.87834 13.86986 31656 ft 418 kts 186°
2026-05-04 08:13 65.84934 13.86808 31820 ft 420 kts 186°
2026-05-04 08:14 65.82020 13.86625 31966 ft 423 kts 186°
2026-05-04 08:14 65.79089 13.86443 32112 ft 425 kts 186°
2026-05-04 08:14 65.76144 13.86258 32259 ft 427 kts 186°
2026-05-04 08:16 65.55325 13.84984 32503 ft 430 kts 186°
2026-05-04 08:16 65.49376 13.84625 32515 ft 430 kts 187°
2026-05-04 08:17 65.43427 13.84264 32517 ft 430 kts 187°
2026-05-04 08:17 65.37457 13.83902 32506 ft 430 kts 186°
2026-05-04 08:19 65.13693 13.82490 32488 ft 428 kts 187°
2026-05-04 08:20 65.07769 13.82141 32498 ft 428 kts 187°
2026-05-04 08:20 65.01849 13.81792 32513 ft 428 kts 187°
2026-05-04 08:21 64.95926 13.81446 32524 ft 427 kts 187°
2026-05-04 08:21 64.90013 13.81101 32525 ft 427 kts 187°
2026-05-04 08:22 64.84097 13.80760 32534 ft 427 kts 187°
2026-05-04 08:24 64.60464 13.79406 32550 ft 426 kts 187°
2026-05-04 08:24 64.54570 13.79072 32557 ft 426 kts 187°
2026-05-04 08:25 64.48673 13.78739 32565 ft 426 kts 187°
2026-05-04 08:25 64.42783 13.78408 32568 ft 425 kts 187°
2026-05-04 08:27 64.19246 13.77098 32571 ft 425 kts 187°
2026-05-04 08:28 64.13367 13.76779 32567 ft 425 kts 187°
2026-05-04 08:28 64.07485 13.76456 32555 ft 425 kts 187°
2026-05-04 08:29 64.01613 13.76137 32555 ft 424 kts 187°
2026-05-04 08:31 63.78219 13.74871 32569 ft 422 kts 187°
2026-05-04 08:33 63.54920 13.73634 32586 ft 420 kts 187°
2026-05-04 08:35 63.31730 13.72421 32602 ft 418 kts 187°
2026-05-04 08:35 63.25950 13.72124 32593 ft 418 kts 187°
2026-05-04 08:37 63.05772 13.71093 32572 ft 416 kts 188°
2026-05-04 08:38 63.00020 13.70801 32567 ft 416 kts 188°
2026-05-04 08:38 62.94275 13.70508 32557 ft 414 kts 188°
2026-05-04 08:40 62.71325 13.69356 32582 ft 415 kts 188°
2026-05-04 08:41 62.65575 13.69075 32584 ft 415 kts 188°
2026-05-04 08:41 62.59839 13.68792 32567 ft 414 kts 188°
2026-05-04 08:42 62.54109 13.68507 32573 ft 414 kts 188°
2026-05-04 08:42 62.48371 13.68229 32576 ft 415 kts 188°
2026-05-04 08:43 62.42632 13.67948 32574 ft 413 kts 188°
2026-05-04 08:43 62.36906 13.67672 32558 ft 414 kts 188°
2026-05-04 08:44 62.31171 13.67393 32554 ft 414 kts 188°
2026-05-04 08:46 62.08234 13.66292 32565 ft 414 kts 188°
2026-05-04 08:46 62.02507 13.66018 32574 ft 414 kts 188°
2026-05-04 08:47 61.96777 13.65746 32563 ft 413 kts 188°
2026-05-04 08:47 61.91051 13.65475 32566 ft 414 kts 188°
2026-05-04 08:48 61.85323 13.65207 32567 ft 413 kts 188°
2026-05-04 08:48 61.79606 13.64941 32571 ft 414 kts 188°
2026-05-04 08:49 61.73882 13.64673 32560 ft 413 kts 188°
2026-05-04 08:50 61.53861 13.63749 32561 ft 413 kts 188°
2026-05-04 08:51 61.48139 13.63485 32581 ft 413 kts 188°
2026-05-04 08:51 61.42430 13.63223 32587 ft 411 kts 188°
2026-05-04 08:52 61.36737 13.62966 32579 ft 412 kts 188°
2026-05-04 08:52 61.31034 13.62705 32580 ft 412 kts 188°
2026-05-04 08:54 61.08233 13.61680 32584 ft 412 kts 188°
2026-05-04 08:55 61.02528 13.61426 32594 ft 412 kts 188°
2026-05-04 08:55 60.96832 13.61171 32608 ft 412 kts 188°
2026-05-04 09:01 60.36760 13.58560 32635 ft 415 kts 188°
2026-05-04 09:01 60.31014 13.58315 32639 ft 414 kts 188°
2026-05-04 09:02 60.25277 13.58070 32659 ft 415 kts 188°
2026-05-04 09:02 60.19530 13.57827 32651 ft 415 kts 188°
2026-05-04 09:03 60.13784 13.57586 32661 ft 415 kts 188°
2026-05-04 09:03 60.08041 13.57344 32690 ft 415 kts 188°
2026-05-04 09:04 60.02290 13.57103 32676 ft 415 kts 188°
2026-05-04 09:04 59.96531 13.56862 32675 ft 416 kts 188°
2026-05-04 09:05 59.90777 13.56622 32671 ft 415 kts 188°
2026-05-04 09:05 59.85017 13.56384 32666 ft 416 kts 188°
2026-05-04 09:06 59.79252 13.56144 32667 ft 416 kts 188°
2026-05-04 09:08 59.56127 13.55196 32675 ft 419 kts 187°
2026-05-04 09:08 59.50320 13.54960 32677 ft 420 kts 187°
2026-05-04 09:09 59.44513 13.54728 32679 ft 420 kts 187°
2026-05-04 09:09 59.38691 13.54494 32682 ft 420 kts 187°
2026-05-04 09:10 59.32861 13.54259 32685 ft 421 kts 187°
2026-05-04 09:10 59.27029 13.54026 32681 ft 421 kts 187°
2026-05-04 09:11 59.21194 13.53793 32681 ft 422 kts 187°
2026-05-04 09:11 59.15350 13.53560 32678 ft 422 kts 187°
2026-05-04 09:12 59.09507 13.53330 32676 ft 422 kts 187°
2026-05-04 09:14 58.86082 13.52407 32688 ft 423 kts 187°
2026-05-04 09:14 58.80221 13.52179 32698 ft 423 kts 187°
2026-05-04 09:15 58.74368 13.51955 32669 ft 422 kts 187°
2026-05-04 09:15 58.68515 13.51727 32676 ft 422 kts 187°
2026-05-04 09:17 58.42207 13.50718 32666 ft 422 kts 187°
2026-05-04 09:18 58.36357 13.50496 32685 ft 422 kts 187°
2026-05-04 09:18 58.30510 13.50273 32663 ft 422 kts 187°
2026-05-04 09:19 58.24667 13.50055 32688 ft 422 kts 187°
2026-05-04 09:19 58.18823 13.49834 32670 ft 422 kts 187°
2026-05-04 09:20 58.12980 13.49615 32680 ft 422 kts 187°
2026-05-04 09:20 58.07135 13.49398 32685 ft 422 kts 187°
2026-05-04 09:21 58.01291 13.49180 32677 ft 422 kts 187°
2026-05-04 09:21 57.95428 13.48962 32695 ft 423 kts 187°
2026-05-04 09:22 57.89576 13.48745 32707 ft 422 kts 187°
2026-05-04 09:22 57.83723 13.48529 32715 ft 422 kts 187°
2026-05-04 09:23 57.77881 13.48313 32724 ft 422 kts 187°
2026-05-04 09:23 57.72040 13.48101 32733 ft 422 kts 187°
2026-05-04 09:25 57.48680 13.47251 32744 ft 422 kts 187°
2026-05-04 09:26 57.42837 13.47040 32749 ft 422 kts 187°
2026-05-04 09:26 57.36991 13.46830 32748 ft 422 kts 187°
2026-05-04 09:27 57.31136 13.46620 32755 ft 422 kts 186°
2026-05-04 09:27 57.25289 13.46413 32751 ft 422 kts 186°
2026-05-04 09:28 57.19441 13.46203 32759 ft 422 kts 186°
2026-05-04 09:28 57.13588 13.45997 32759 ft 423 kts 186°
2026-05-04 09:29 57.07734 13.45790 32759 ft 423 kts 186°
2026-05-04 09:29 57.01879 13.45584 32766 ft 422 kts 186°
2026-05-04 09:30 56.96067 13.45379 32774 ft 422 kts 186°
2026-05-04 09:30 56.90223 13.45175 32773 ft 422 kts 186°
2026-05-04 09:31 56.84329 13.44968 32780 ft 423 kts 186°
2026-05-04 09:31 56.78514 13.44767 32788 ft 422 kts 187°
2026-05-04 09:32 56.72661 13.44563 32795 ft 423 kts 187°
2026-05-04 09:34 56.49252 13.43758 32810 ft 422 kts 187°
2026-05-04 09:34 56.43404 13.43558 32815 ft 422 kts 187°
2026-05-04 09:35 56.37557 13.43359 32820 ft 422 kts 187°
2026-05-04 09:35 56.31716 13.43161 32826 ft 422 kts 187°
2026-05-04 09:37 56.08339 13.42372 32844 ft 422 kts 187°
2026-05-04 09:38 56.02500 13.42178 32843 ft 421 kts 187°
2026-05-04 09:38 55.96649 13.41981 32847 ft 421 kts 187°
2026-05-04 09:39 55.90813 13.41789 32856 ft 421 kts 187°
2026-05-04 09:39 55.84974 13.41596 32856 ft 421 kts 187°
2026-05-04 09:40 55.79153 13.41403 32851 ft 419 kts 187°
2026-05-04 09:40 55.73339 13.41211 32861 ft 420 kts 188°
2026-05-04 09:42 55.50113 13.40455 32867 ft 418 kts 188°
2026-05-04 09:43 55.44327 13.40263 32863 ft 417 kts 188°
2026-05-04 09:43 55.38553 13.40077 32865 ft 417 kts 188°
2026-05-04 09:44 55.32772 13.39892 32868 ft 417 kts 188°
2026-05-04 09:46 55.09723 13.39159 32889 ft 414 kts 189°
2026-05-04 09:46 55.04023 13.38977 32884 ft 414 kts 189°
2026-05-04 09:47 54.98278 13.38797 32896 ft 414 kts 189°
2026-05-04 09:49 54.75186 13.39626 32898 ft 417 kts 186°
2026-05-04 09:51 54.54938 13.40890 32898 ft 419 kts 186°
2026-05-04 09:51 54.49182 13.41248 32900 ft 419 kts 185°
2026-05-04 09:52 54.43376 13.41612 32897 ft 419 kts 185°
2026-05-04 09:52 54.37575 13.41973 32902 ft 418 kts 185°
2026-05-04 09:53 54.31778 13.42330 32906 ft 419 kts 185°
2026-05-04 09:53 54.25991 13.42690 32915 ft 418 kts 185°
2026-05-04 09:54 54.20202 13.43046 32923 ft 418 kts 185°
2026-05-04 09:54 54.14402 13.43402 32924 ft 419 kts 185°
2026-05-04 09:55 54.08598 13.43757 32932 ft 418 kts 185°
2026-05-04 09:55 54.02797 13.44113 32921 ft 419 kts 185°
2026-05-04 09:56 53.96977 13.44467 32927 ft 419 kts 185°
2026-05-04 09:56 53.91169 13.44819 32929 ft 419 kts 184°
2026-05-04 09:57 53.85353 13.45173 32926 ft 420 kts 185°
2026-05-04 09:57 53.79526 13.45527 32926 ft 420 kts 185°
2026-05-04 09:58 53.73695 13.45876 32930 ft 421 kts 184°
2026-05-04 09:58 53.67874 13.46228 32927 ft 419 kts 184°
2026-05-04 10:00 53.44580 13.47617 32932 ft 422 kts 185°
2026-05-04 10:04 53.03559 13.50030 32928 ft 424 kts 184°
2026-05-04 10:04 52.97713 13.50367 32925 ft 424 kts 184°
2026-05-04 10:05 52.91830 13.50708 32924 ft 425 kts 184°
2026-05-04 10:05 52.85904 13.51052 32924 ft 425 kts 184°
2026-05-04 10:06 52.80043 13.51389 32923 ft 424 kts 184°
2026-05-04 10:06 52.74150 13.51727 32927 ft 425 kts 184°
2026-05-04 10:08 52.53529 13.52907 32925 ft 426 kts 184°
2026-05-04 10:08 52.47599 13.53245 32933 ft 427 kts 184°
2026-05-04 10:09 52.41681 13.53581 32934 ft 427 kts 184°
2026-05-04 10:09 52.35746 13.53915 32940 ft 428 kts 184°
2026-05-04 10:10 52.29820 13.54247 32939 ft 427 kts 184°
2026-05-04 10:10 52.23890 13.54581 32935 ft 428 kts 184°
2026-05-04 10:11 52.17957 13.54913 32936 ft 428 kts 184°
2026-05-04 10:11 52.12050 13.55244 32937 ft 429 kts 184°
2026-05-04 10:12 52.06110 13.55576 32933 ft 428 kts 183°
2026-05-04 10:12 52.00166 13.55907 32937 ft 429 kts 183°
2026-05-04 10:13 51.94202 13.56238 32941 ft 430 kts 183°
2026-05-04 10:13 51.88214 13.56569 32945 ft 430 kts 183°
2026-05-04 10:14 51.82253 13.56897 32945 ft 430 kts 183°
2026-05-04 10:16 51.58382 13.58206 32941 ft 431 kts 183°
2026-05-04 10:16 51.52391 13.58532 32941 ft 432 kts 183°
2026-05-04 10:17 51.46407 13.58857 32944 ft 432 kts 182°
2026-05-04 10:19 51.22420 13.60152 32957 ft 434 kts 182°
2026-05-04 10:19 51.16379 13.60478 32962 ft 434 kts 182°
2026-05-04 10:20 51.10365 13.60801 32968 ft 433 kts 182°
2026-05-04 10:20 51.04396 13.61119 32971 ft 433 kts 182°
2026-05-04 10:21 50.98374 13.61440 32971 ft 434 kts 182°
2026-05-04 10:21 50.92355 13.61761 32972 ft 434 kts 182°
2026-05-04 10:22 50.83309 13.62243 32985 ft 435 kts 182°
2026-05-04 10:23 50.77275 13.62341 32984 ft 433 kts 186°
2026-05-04 10:25 50.54145 13.54161 32980 ft 428 kts 201°
2026-05-04 10:25 50.48478 13.51353 32974 ft 428 kts 201°
2026-05-04 10:26 50.42800 13.48544 32975 ft 429 kts 201°
2026-05-04 10:26 50.37124 13.45741 32979 ft 429 kts 201°
2026-05-04 10:27 50.31456 13.42948 32978 ft 429 kts 201°
2026-05-04 10:27 50.25777 13.40156 32988 ft 429 kts 201°
2026-05-04 10:28 50.20099 13.37371 32990 ft 429 kts 201°
2026-05-04 10:28 50.14449 13.34607 32991 ft 430 kts 200°
2026-05-04 10:29 50.08712 13.31808 32994 ft 429 kts 200°
2026-05-04 10:29 50.03017 13.29035 32993 ft 430 kts 200°
2026-05-04 10:30 49.97342 13.26278 32995 ft 431 kts 200°
2026-05-04 10:30 49.91627 13.23512 32993 ft 431 kts 200°
2026-05-04 10:31 49.85897 13.20744 32997 ft 431 kts 200°
2026-05-04 10:32 49.65932 13.11153 32994 ft 431 kts 200°
2026-05-04 10:33 49.60201 13.08414 32996 ft 431 kts 200°
2026-05-04 10:33 49.54509 13.05702 32995 ft 430 kts 200°
2026-05-04 10:34 49.48827 13.03001 32175 ft 430 kts 200°
2026-05-04 10:34 49.45970 13.01639 31084 ft 436 kts 199°
2026-05-04 10:34 49.43101 13.00201 30207 ft 435 kts 202°
2026-05-04 10:35 49.40315 12.98497 29580 ft 428 kts 206°
2026-05-04 10:35 49.37669 12.96603 29281 ft 415 kts 207°
2026-05-04 10:35 49.35104 12.94743 28990 ft 404 kts 207°
2026-05-04 10:35 49.32579 12.92910 28676 ft 402 kts 207°
2026-05-04 10:36 49.30069 12.91086 28274 ft 400 kts 207°
2026-05-04 10:36 49.27575 12.89274 27836 ft 397 kts 207°
2026-05-04 10:36 49.25100 12.87477 27396 ft 394 kts 207°
2026-05-04 10:36 49.22642 12.85694 26947 ft 391 kts 207°
2026-05-04 10:37 49.20205 12.83924 26490 ft 388 kts 207°
2026-05-04 10:37 49.17785 12.82168 26046 ft 385 kts 207°
2026-05-04 10:37 49.15383 12.80427 25603 ft 382 kts 207°
2026-05-04 10:37 49.12998 12.78702 25156 ft 379 kts 207°
2026-05-04 10:39 48.99098 12.68688 22510 ft 362 kts 206°
2026-05-04 10:39 48.96836 12.67066 22068 ft 359 kts 206°
2026-05-04 10:39 48.94591 12.65458 21631 ft 356 kts 206°
2026-05-04 10:40 48.92366 12.63865 21194 ft 353 kts 206°
2026-05-04 10:40 48.90158 12.62286 20762 ft 351 kts 206°
2026-05-04 10:40 48.87957 12.60717 20329 ft 348 kts 206°
2026-05-04 10:40 48.85778 12.59167 19899 ft 345 kts 206°
2026-05-04 10:41 48.83615 12.57630 19468 ft 343 kts 206°
2026-05-04 10:41 48.81472 12.56108 19034 ft 340 kts 206°
2026-05-04 10:41 48.79340 12.54596 18607 ft 338 kts 206°
2026-05-04 10:41 48.77217 12.53111 18181 ft 336 kts 205°
2026-05-04 10:42 48.75060 12.51812 17758 ft 334 kts 201°
2026-05-04 10:42 48.72886 12.50637 17338 ft 332 kts 201°
2026-05-04 10:42 48.70723 12.49471 16918 ft 330 kts 201°
2026-05-04 10:42 48.68567 12.48310 16494 ft 328 kts 201°
2026-05-04 10:43 48.66426 12.47158 16074 ft 326 kts 201°
2026-05-04 10:44 48.59716 12.28506 13110 ft 317 kts 262°
2026-05-04 10:45 48.59559 12.25193 12839 ft 317 kts 264°
2026-05-04 10:45 48.59437 12.21845 12861 ft 321 kts 265°
2026-05-04 10:45 48.59317 12.18479 12884 ft 321 kts 265°
2026-05-04 10:45 48.59195 12.15101 12904 ft 322 kts 265°
2026-05-04 10:46 48.59072 12.11731 12923 ft 322 kts 265°
2026-05-04 10:46 48.58947 12.08363 12935 ft 322 kts 265°
2026-05-04 10:46 48.58820 12.04988 12606 ft 324 kts 265°
2026-05-04 10:46 48.58694 12.01615 12150 ft 322 kts 264°
2026-05-04 10:47 48.58568 11.98297 11719 ft 320 kts 264°
2026-05-04 10:47 48.58440 11.94967 11293 ft 318 kts 264°
2026-05-04 10:47 48.58312 11.91662 10880 ft 315 kts 264°
2026-05-04 10:47 48.58184 11.88384 10478 ft 313 kts 264°
2026-05-04 10:49 48.57344 11.67505 8598 ft 275 kts 265°
2026-05-04 10:49 48.57226 11.64638 8259 ft 274 kts 265°
2026-05-04 10:50 48.56916 11.61838 7881 ft 272 kts 246°
2026-05-04 10:51 48.45379 11.54579 5525 ft 263 kts 195°
2026-05-04 10:52 48.43657 11.53821 5442 ft 251 kts 195°
2026-05-04 10:52 48.42030 11.53101 5416 ft 237 kts 195°
2026-05-04 10:52 48.40485 11.52420 5377 ft 225 kts 195°
2026-05-04 10:54 48.34798 11.57510 4171 ft 156 kts 82°
2026-05-04 10:54 48.34934 11.59083 3863 ft 149 kts 81°
2026-05-04 10:56 48.35700 11.69182 2413 ft 137 kts 83°
2026-05-04 10:56 48.35809 11.70590 2262 ft 137 kts 82°
2026-05-04 10:56 48.35926 11.72017 2104 ft 137 kts 85°
2026-05-04 10:57 48.36031 11.73437 1934 ft 136 kts 83°
2026-05-04 10:57 48.36140 11.74849 1771 ft 136 kts 83°
2026-05-04 10:57 48.36240 11.76269 1569 ft 135 kts 83°
2026-05-04 10:57 48.36345 11.77641 1467 ft 126 kts 84°
2026-05-04 10:58 48.36433 11.78796 1462 ft 98 kts 83°
2026-05-04 10:58 48.36499 11.79654 1459 ft 56 kts 83°
2026-05-04 10:58 48.36499 11.79990 1456 ft 30 kts 104°
2026-05-04 10:58 48.36424 11.80285 1454 ft 29 kts 113°
2026-05-04 10:59 48.36366 11.80481 1453 ft 12 kts 115°
2026-05-04 10:59 48.36309 11.80514 1452 ft 11 kts 213°
2026-05-04 10:59 48.36286 11.80403 1452 ft 12 kts 265°
2026-05-04 10:59 48.36276 11.80275 1453 ft 12 kts 263°
2026-05-04 11:00 48.36266 11.80145 1454 ft 12 kts 264°
2026-05-04 11:01 48.36098 11.79315 1468 ft 10 kts 173°
2026-05-04 11:02 48.36016 11.79329 1472 ft 12 kts 174°
2026-05-04 11:02 48.35930 11.79353 1478 ft 12 kts 151°
2026-05-04 11:05 48.35842 11.79234 1479 ft 0 kts 262°